Regional Weather Roundup
Issued by NWS

Home | Current Version | Previous Version | Graphics & Text | Print | Product List | Glossary On
Versions: 1 2 3 4 5 6 7 8 9 10 11 12 13 14 15 16 17 18 19 20 21 22 23 24 25 26 27 28 29 30 31 32 33 34 35 36 37 38 39 40 41 42 43 44 45 46 47 48 49 50
000
ASUS43 KBIS 250610
RWRND

NORTH DAKOTA REGIONAL WEATHER ROUNDUP
NATIONAL WEATHER SERVICE BISMARCK ND
100 AM CDT SAT MAR 25 2017

NOTE: "FAIR" INDICATES FEW OR NO CLOUDS BELOW 12,000 FEET WITH NO
SIGNIFICANT WEATHER AND/OR OBSTRUCTIONS TO VISIBILITY.


NDZ001>003-009>011-017-250700-
NORTHWEST NORTH DAKOTA

CITY           SKY/WX    TMP DP  RH WIND       PRES   REMARKS
WILLISTON      FAIR      43  34  70 SE16G22   29.94F
6HR MIN TEMP:  43; 6HR MAX TEMP:  53;

MINOT          CLOUDY    32  30  92 SE13      30.08F
MINOT AFB      CLOUDY    30  28  93 SE15      30.07F WCI  19
$$

NDZ018>021-031>035-040>046-250700-
SOUTHWEST NORTH DAKOTA

CITY           SKY/WX    TMP DP  RH WIND       PRES   REMARKS
BISMARCK       FAIR      30  28  92 E8        30.14S
6HR MIN TEMP:  30; 6HR MAX TEMP:  43;

DICKINSON      FAIR      36  30  79 SE15      29.98F
GARRISON         N/A     29  28  96 SE10      30.07F WCI  20
6HR MIN TEMP:  29; 6HR MAX TEMP:  39;

HETTINGER ARPT CLOUDY    38  31  76 SE13      30.02F
$$

NDZ004>008-012>016-024-026-027-054-250700-
NORTHEAST NORTH DAKOTA

CITY           SKY/WX    TMP DP  RH WIND       PRES   REMARKS
GRAND FORKS    CLEAR     29  28  96 NW6       30.22S
GRND FRKS AFB  CLEAR     27  27  99 N3        30.22F
DEVILS LAKE    CLOUDY    29  26  89 SE12      30.20R WCI  19
$$

NDZ022-023-025-028>030-036>039-047>053-250700-
SOUTHEAST NORTH DAKOTA

CITY           SKY/WX    TMP DP  RH WIND       PRES   REMARKS
FARGO          CLEAR     29  27  92 CALM      30.22R
6HR MIN TEMP:  28; 6HR MAX TEMP:  38;

JAMESTOWN      CLOUDY    30  28  92 SE7       30.19S
$$





USA.gov is the U.S. government's official web portal to all federal, state and local government web resources and services.